Weather History for West Bend, WI

Change the Weather History Date:

Monday, November 21, 2011

  Actual Average Record
Temperature  
Mean Temperature 34 °F -  
Max Temperature 37 °F 40 °F 62 °F (1990)
Min Temperature 30 °F 25 °F 3 °F (2014)
Degree Days  
Heating Degree Days 32    
Moisture  
Dew Point 27 °F    
Average Humidity 81    
Maximum Humidity 93    
Minimum Humidity 75    
Precipitation  
Precipitation 0.00 in - - ()
Sea Level Pressure  
Sea Level Pressure 30.30 in    
Wind  
Wind Speed 2 mph (NE)    
Max Wind Speed 7 mph    
Max Gust Speed -    
Visibility 10 miles    
Events      
Averages and records for this station are not official NWS values.
T = Trace of Precipitation, MM = Missing Value Source: NWS Daily Summary

Daily Weather History Graph

Daily Weather History Graph

Search for Another Location

Airport:

Trip Planner

Search our weather history database for the weather conditions in past years. The results will help you decide how hot, cold, wet, or windy it might be!

Date:

Astronomy

Nov. 21, 2011 Rise Set
Actual Time 6:53 AM CST 4:23 PM CST
Civil Twilight 6:22 AM CST 4:54 PM CST
Nautical Twilight 5:47 AM CST 5:29 PM CST
Astronomical Twilight 5:13 AM CST 6:03 PM CST
Moon 2:25 AM CST (11/21) 1:50 PM CST (11/21)
Length of Visible Light 10h 32m
Length of Day
9h 29m
Waning Crescent, 17% of the Moon is Illuminated
Nov 21
Waning Crescent
Nov 25
New
Dec 2
First Quarter
Dec 10
Full
Dec 17
Last Quarter

Hourly Weather History & Observations

Time (CST) Temp. Windchill Dew Point Humidity Pressure Visibility Wind Dir Wind Speed Gust Speed Precip Events Conditions
12:15 AM 30.2 °F - 23.0 °F 75% 30.32 in 10.0 mi Calm Calm - N/A   Overcast
12:35 AM 30.2 °F - 23.0 °F 75% 30.32 in 10.0 mi Calm Calm - N/A   Overcast
12:55 AM 30.2 °F 26.7 °F 23.0 °F 75% 30.31 in 10.0 mi North 3.5 mph - N/A   Overcast
1:15 AM 30.2 °F - 23.0 °F 75% 30.32 in 10.0 mi Calm Calm - N/A   Overcast
1:35 AM 30.2 °F - 23.0 °F 75% 30.33 in 10.0 mi Calm Calm - N/A   Overcast
1:55 AM 30.2 °F 25.4 °F 23.0 °F 75% 30.33 in 10.0 mi NNW 4.6 mph - N/A   Overcast
2:35 AM 30.2 °F 26.7 °F 23.0 °F 75% 30.34 in 10.0 mi NNW 3.5 mph - N/A   Overcast
2:55 AM 30.2 °F - 23.0 °F 75% 30.34 in 10.0 mi Calm Calm - N/A   Overcast
3:15 AM 30.2 °F 25.4 °F 24.8 °F 80% 30.34 in 10.0 mi NNW 4.6 mph - N/A   Overcast
3:35 AM 30.2 °F 26.7 °F 24.8 °F 80% 30.34 in 10.0 mi NNW 3.5 mph - N/A   Overcast
3:55 AM 30.2 °F 26.7 °F 24.8 °F 80% 30.34 in 10.0 mi NNW 3.5 mph - N/A   Overcast
4:15 AM 30.2 °F 26.7 °F 24.8 °F 80% 30.34 in 10.0 mi NNW 3.5 mph - N/A   Overcast
4:35 AM 30.2 °F 25.4 °F 24.8 °F 80% 30.33 in 10.0 mi North 4.6 mph - N/A   Overcast
5:15 AM 30.2 °F - 24.8 °F 80% 30.33 in 10.0 mi Calm Calm - N/A   Overcast
5:35 AM 30.2 °F - 24.8 °F 80% 30.33 in 10.0 mi Calm Calm - N/A   Overcast
6:15 AM 30.2 °F - 24.8 °F 80% 30.34 in 10.0 mi Calm Calm - N/A   Overcast
6:35 AM 30.2 °F - 24.8 °F 80% 30.35 in 10.0 mi Calm Calm - N/A   Overcast
6:55 AM 30.2 °F - 24.8 °F 80% 30.34 in 10.0 mi Calm Calm - N/A   Overcast
7:15 AM 30.2 °F 26.7 °F 24.8 °F 80% 30.35 in 10.0 mi North 3.5 mph - N/A   Overcast
7:35 AM 30.2 °F - 24.8 °F 80% 30.35 in 10.0 mi Calm Calm - N/A   Overcast
8:15 AM 32.0 °F - 24.8 °F 75% 30.35 in 10.0 mi Calm Calm - N/A   Overcast
8:35 AM 32.0 °F 28.7 °F 24.8 °F 75% 30.35 in 10.0 mi NNE 3.5 mph - N/A   Overcast
8:55 AM 32.0 °F 28.7 °F 24.8 °F 75% 30.36 in 10.0 mi North 3.5 mph - N/A   Overcast
9:15 AM 32.0 °F 28.7 °F 26.6 °F 80% 30.36 in 10.0 mi NE 3.5 mph - N/A   Overcast
9:35 AM 32.0 °F 27.5 °F 26.6 °F 80% 30.36 in 10.0 mi North 4.6 mph - N/A   Overcast
9:55 AM 32.0 °F 27.5 °F 26.6 °F 80% 30.35 in 10.0 mi NNE 4.6 mph - N/A   Overcast
10:15 AM 33.8 °F - 26.6 °F 75% 30.36 in 10.0 mi Calm Calm - N/A   Overcast
10:35 AM 33.8 °F - 26.6 °F 75% 30.35 in 10.0 mi Calm Calm - N/A   Overcast
10:55 AM 33.8 °F 28.6 °F 28.4 °F 81% 30.34 in 10.0 mi NNE 5.8 mph - N/A   Overcast
11:15 AM 35.6 °F 31.7 °F 28.4 °F 75% 30.33 in 10.0 mi NE 4.6 mph - N/A   Overcast
11:35 AM 35.6 °F 30.7 °F 28.4 °F 75% 30.31 in 10.0 mi NE 5.8 mph - N/A   Overcast
12:15 PM 35.6 °F 30.7 °F 28.4 °F 75% 30.30 in 10.0 mi ENE 5.8 mph - N/A   Unknown
12:35 PM 37.4 °F 34.9 °F 30.2 °F 75% 30.29 in 10.0 mi East 3.5 mph - N/A   Overcast
1:15 PM 37.4 °F 34.9 °F 30.2 °F 75% 30.28 in 10.0 mi NE 3.5 mph - N/A   Overcast
1:35 PM 37.4 °F 32.1 °F 30.2 °F 75% 30.28 in 10.0 mi ENE 6.9 mph - N/A   Overcast
1:55 PM 37.4 °F 32.1 °F 30.2 °F 75% 30.28 in 10.0 mi East 6.9 mph - N/A   Overcast
2:35 PM 37.4 °F 33.8 °F 30.2 °F 75% 30.27 in 10.0 mi East 4.6 mph - N/A   Overcast
2:55 PM 37.4 °F 32.1 °F 30.2 °F 75% 30.28 in 10.0 mi East 6.9 mph - N/A   Overcast
3:35 PM 37.4 °F 32.1 °F 30.2 °F 75% 30.28 in 10.0 mi East 6.9 mph - N/A   Overcast
4:15 PM 35.6 °F 29.9 °F 30.2 °F 81% 30.28 in 10.0 mi ENE 6.9 mph - N/A   Overcast
4:35 PM 35.6 °F 30.7 °F 30.2 °F 81% 30.28 in 10.0 mi ENE 5.8 mph - N/A   Overcast
4:55 PM 35.6 °F 32.8 °F 30.2 °F 81% 30.27 in 10.0 mi East 3.5 mph - N/A   Overcast
5:15 PM 33.8 °F 28.6 °F 30.2 °F 87% 30.26 in 10.0 mi ENE 5.8 mph - N/A   Overcast
5:35 PM 33.8 °F 30.8 °F 30.2 °F 87% 30.26 in 10.0 mi NE 3.5 mph - N/A   Overcast
6:15 PM 33.8 °F - 28.4 °F 81% 30.28 in 10.0 mi Calm Calm - N/A   Overcast
6:35 PM 33.8 °F - 28.4 °F 81% 30.27 in 10.0 mi Calm Calm - N/A   Overcast
6:55 PM 32.0 °F 27.5 °F 28.4 °F 87% 30.26 in 10.0 mi NNE 4.6 mph - N/A   Overcast
7:15 PM 32.0 °F - 28.4 °F 87% 30.26 in 10.0 mi Calm Calm - N/A   Overcast
7:35 PM 32.0 °F - 28.4 °F 87% 30.26 in 10.0 mi Calm Calm - N/A   Overcast
7:55 PM 32.0 °F 27.5 °F 30.2 °F 93% 30.26 in 10.0 mi NE 4.6 mph - N/A   Overcast
8:15 PM 32.0 °F 28.7 °F 28.4 °F 87% 30.25 in 10.0 mi NE 3.5 mph - N/A   Overcast
8:35 PM 32.0 °F 28.7 °F 28.4 °F 87% 30.25 in 10.0 mi NE 3.5 mph - N/A   Scattered Clouds
8:55 PM 32.0 °F 28.7 °F 28.4 °F 87% 30.25 in 10.0 mi NE 3.5 mph - N/A   Clear
9:15 PM 32.0 °F 27.5 °F 28.4 °F 87% 30.24 in 10.0 mi NE 4.6 mph - N/A   Clear
9:35 PM 32.0 °F 27.5 °F 28.4 °F 87% 30.23 in 10.0 mi NE 4.6 mph - N/A   Clear
9:55 PM 30.2 °F - 28.4 °F 93% 30.24 in 10.0 mi Calm Calm - N/A   Clear
10:15 PM 32.0 °F 28.7 °F 28.4 °F 87% 30.24 in 10.0 mi NNE 3.5 mph - N/A   Mostly Cloudy
10:35 PM 32.0 °F 28.7 °F 30.2 °F 93% 30.24 in 10.0 mi NNE 3.5 mph - N/A   Overcast
10:55 PM 32.0 °F 28.7 °F 30.2 °F 93% 30.24 in 10.0 mi NNE 3.5 mph - N/A   Overcast
11:35 PM 32.0 °F 28.7 °F 30.2 °F 93% 30.24 in 10.0 mi NE 3.5 mph - N/A   Overcast